User: anonymous
Location: Caltech
(34.1382°N, 118.1253°W)
Time: 14:45:31
(UTC-07:00)
Language:

FENGYUN 3A - Orbit

View from above orbital plane
View from above orbital plane
View from above satellite
View from above satellite

Ground track
Ground track

The orbit data is extracted from the following two-line orbital elements,

1 32958U 08026A   14261.17369510  .00000121  00000-0  77364-4 0  3594
2 32958 098.5448 316.8331 0009246 311.9803 048.0582 14.19470884327036
Epoch (UTC): 18 September 2014 04:10:07
Eccentricity: 0.0009246
inclination: 98.5448°
perigee height: 820 km
apogee height: 834 km
right ascension of ascending node: 316.8331°
argument of perigee: 311.9803°
revolutions per day: 14.19470884
mean anomaly at epoch: 48.0582°
orbit number at epoch: 32703

The dashed part of the orbit path shows where the satellite is in the earth's shadow,  

DLR